Location: Anglesey
(53.1800°N, 4.2200°W)
Time: 08:12:21
(UTC+00:00)

N. Korean satellite - Visible Passes

Search period start: 18 January 2018 00:00
Search period end: 28 January 2018 00:00
Orbit: 459 x 515 km, 97.2° (Epoch: 17 January)

Date Brightness Start Highest point End Pass type
(mag) Time Alt. Az. Time Alt. Az. Time Alt. Az.
18 Jan 9.4 06:16:57 10° NE 06:19:33 20° E 06:22:09 10° SE visible
18 Jan 8.1 18:31:54 10° SSW 18:35:18 39° W 18:38:40 10° NNW visible
19 Jan 10.1 05:54:26 10° ENE 05:55:39 11° E 05:56:52 10° ESE visible
19 Jan 6.4 07:26:11 10° N 07:29:38 70° WNW 07:33:04 10° SSW visible
19 Jan 6.8 18:07:59 10° S 18:11:35 72° WSW 18:15:08 10° NNW visible
20 Jan 7.0 07:02:31 10° NNE 07:05:58 62° ESE 07:09:23 10° S visible
20 Jan 6.5 17:44:22 10° SSE 17:47:55 62° ENE 17:51:26 10° N visible
20 Jan 10.0 19:19:57 10° WSW 19:21:48 14° W 19:23:40 10° WNW visible
21 Jan 8.4 06:39:01 10° NNE 06:42:12 33° E 06:45:22 10° SSE visible
21 Jan 7.1 17:21:04 10° SE 17:24:19 35° ENE 17:27:34 10° N visible
21 Jan 9.2 18:55:02 10° SSW 18:57:56 23° W 19:00:48 10° NW visible
22 Jan 9.5 06:15:48 10° NE 06:18:22 19° E 06:20:56 10° SE visible
22 Jan 8.0 18:30:46 10° S 18:34:08 39° W 18:37:29 10° NNW visible
23 Jan 10.1 05:53:20 10° ENE 05:54:28 11° E 05:55:35 10° ESE visible
23 Jan 6.4 07:25:00 10° N 07:28:27 72° WNW 07:31:53 10° SSW visible
23 Jan 6.7 18:06:51 10° S 18:10:24 73° WSW 18:13:55 10° NNW visible
24 Jan 7.1 07:01:19 10° NNE 07:04:46 60° ESE 07:08:11 10° S visible
24 Jan 6.5 17:43:14 10° SSE 17:46:43 60° ENE 17:50:12 10° N visible
24 Jan 10.0 19:18:45 10° WSW 19:20:36 14° W 19:22:28 10° WNW visible
25 Jan 8.5 06:37:49 10° NNE 06:40:59 32° E 06:44:09 10° SSE visible
25 Jan 9.1 18:53:52 10° SSW 18:56:44 23° W 18:59:36 10° NW visible
26 Jan 9.5 06:14:36 10° NE 06:17:09 19° E 06:19:42 10° SE visible
26 Jan 8.0 18:29:34 10° S 18:32:55 40° W 18:36:15 10° NNW visible
27 Jan 10.2 05:52:10 10° ENE 05:53:14 11° E 05:54:17 10° ESE visible
27 Jan 6.4 07:23:45 10° N 07:27:13 74° WNW 07:30:41 10° SSW visible
27 Jan 6.7 18:05:39 10° S 18:09:11 75° WSW 18:12:40 10° NNW visible
